Showing default

COSMOS 2433 (GLONASS), 32275

Orbit data source: Space-Track

COSMOS 2433 (GLONASS), 32275 is a Commonwealth of Independent States-origin payload satellite in MEO that was launched on Fri, 26 Oct 2007 UTC via a PROTON-K/DM-2 launch vehicle from the Tyuratam Missile And Space Complex (TTMTR). Payload-class satellites include a variety of spacecraft equipped with specific instruments for various scientific and technological missions. These include communications satellites like Starlink; space stations such as the ISS; scientific satellites like the Hubble; Earth observation satellites from companies like Planet Labs, Umbra, and HawkEye 360; GPS; miniature CubeSats for education and research; and military/defense satellites.

Loading next visibility...
Identifier
32275, 2007-052A
Orbit
MEO
Country
Flag of CISCIS
Related business
Manufacturer
Resehetnev ISS
Mission
On reserve Defense Navigation
Bus & Motor
URAGAN, Unknown motor
Mass
1,450 kg wet, ~1,200 kg dry
Launch date (UTC)
2007-10-26 (18 years ago)
Launch vehicle
PROTON-K/DM-2
Launch site
Tyuratam Missile And Space Complex (TTMTR)
Object type
Payload
Rocket body
Debris
Shape & HBR
Cyl + 1 Ant + 2 Pan, 3.9 m
Radar Cross Section
8.467 m², Large (>1 m²)

Expand to show TLE details & history
Last TLE update: 14 hours ago

TLE from 14 hours ago
0 COSMOS 2433 (GLONASS)
1 32275U 07052A   25258.39969598 -.00000061  00000-0  00000-0 0  9991
2 32275  65.7280 325.1738 0005317 228.1961 131.8213  2.13104061139205
Epoch: 2025-09-15T09:35Z
TLE epoch observation values (Epoch: 2025-09-15T09:35:33.732Z)
Latitude
-0.00003°
Longitude
-173.31282°
Altitude
19,139.359 km
Speed
3.952 km/s
True Right ascension
21h 40m 43s
True Declination
0° 00' 00"
Sunlit
Object was in daylight at epoch
Visualization orbit readout
Latitude
Unknown
Longitude
Unknown
Altitude
Unknown
Speed
Unknown
Apparent Right ascension
Unknown
Apparent Declination
Unknown
Sunlit
N/A
Visualization observer readout
Local Sidereal Time
15:58:57
Azimuth
Unknown
Elevation
Unknown
Doppler factor
Unknown
Orbital elements
Apogee altitude
19,142.875 km
Perigee altitude
19,115.751 km
Semi-major axis
25,507.45 km
Eccentricity
0.00053
Inclination
65.728°
RAAN
325.1738°
Arg. of periapsis
228.1961°
True anomaly
131.86669°
Mean anomaly
131.8213°
Eccentric anomaly
131.84399°
Mean motion
0.53277 °/min
Orbital period
675.71 mins
BSTAR
0
Loading maneuver chart data...
Computing Atmospheric mass density...
Loading historical data...
Loading historical data...
Loading historical data...
Loading historical data...
Loading historical data...
Loading historical data...
Loading historical data...

Documentation

Showing up to 5 results
|